Weather History for Windom, MN

Change the Weather History Date:

Saturday, May 4, 2013

  Actual Average Record
Temperature  
Mean Temperature 36 °F -  
Max Temperature 39 °F 68 °F 92 °F (1952)
Min Temperature 32 °F 42 °F 22 °F (1967)
Degree Days  
Heating Degree Days 30    
Moisture  
Dew Point 35 °F    
Average Humidity 98    
Maximum Humidity 100    
Minimum Humidity 87    
Precipitation  
Precipitation 0.04 in - - ()
Sea Level Pressure  
Sea Level Pressure 30.12 in    
Wind  
Wind Speed 16 mph (North)    
Max Wind Speed 21 mph    
Max Gust Speed 26 mph    
Visibility 5 miles    
Events Fog , Rain    
Averages and records for this station are not official NWS values.
T = Trace of Precipitation, MM = Missing Value Source: NWS Daily Summary

Daily Weather History Graph

Daily Weather History Graph

Search for Another Location

Airport:

Trip Planner

Search our weather history database for the weather conditions in past years. The results will help you decide how hot, cold, wet, or windy it might be!

Date:

Astronomy

May. 04, 2013 Rise Set
Actual Time 6:07 AM CDT 8:27 PM CDT
Civil Twilight 5:35 AM CDT 8:59 PM CDT
Nautical Twilight 4:56 AM CDT 9:39 PM CDT
Astronomical Twilight 4:11 AM CDT 10:24 PM CDT
Moon 3:17 AM CDT (5/4) 3:16 PM CDT (5/4)
Length of Visible Light 15h 23m
Length of Day
14h 19m
Waning Crescent, 27% of the Moon is Illuminated
May 4
Waning Crescent
May 9
New
May 17
First Quarter
May 24
Full
May 31
Last Quarter

Hourly Weather History & Observations

Time (CDT) Temp. Windchill Dew Point Humidity Pressure Visibility Wind Dir Wind Speed Gust Speed Precip Events Conditions
12:13 AM 33.8 °F 23.2 °F 32.0 °F 93% 30.12 in 10.0 mi North 17.3 mph 23.0 mph N/A   Overcast
12:32 AM 33.8 °F 22.8 °F 32.0 °F 93% 30.10 in 10.0 mi North 18.4 mph 26.5 mph N/A   Overcast
12:52 AM 33.8 °F 23.5 °F 32.0 °F 93% 30.11 in 10.0 mi NNE 16.1 mph - N/A   Overcast
1:13 AM 33.8 °F 23.2 °F 32.0 °F 93% 30.11 in 10.0 mi North 17.3 mph 21.9 mph N/A   Overcast
1:32 AM 33.8 °F 22.8 °F 32.0 °F 93% 30.10 in 10.0 mi NNE 18.4 mph 24.2 mph N/A   Overcast
1:52 AM 33.8 °F 23.5 °F 30.2 °F 87% 30.10 in 10.0 mi NNE 16.1 mph 25.3 mph N/A   Overcast
2:13 AM 33.8 °F 23.9 °F 32.0 °F 93% 30.09 in 10.0 mi North 15.0 mph 21.9 mph N/A   Overcast
2:32 AM 33.8 °F 24.3 °F 32.0 °F 93% 30.09 in 5.0 mi North 13.8 mph - N/A   Overcast
2:52 AM 32.0 °F 21.2 °F 32.0 °F 100% 30.09 in 4.0 mi North 16.1 mph 21.9 mph N/A   Overcast
3:12 AM 32.0 °F 20.8 °F 30.2 °F 93% 30.09 in 5.0 mi North 17.3 mph - N/A   Overcast
3:32 AM 32.0 °F 20.5 °F 30.2 °F 93% 30.09 in 10.0 mi NNE 18.4 mph - N/A   Overcast
3:53 AM 32.0 °F 21.2 °F 32.0 °F 100% 30.09 in 10.0 mi North 16.1 mph 21.9 mph N/A   Overcast
4:12 AM 32.0 °F 20.5 °F 30.2 °F 93% 30.09 in 10.0 mi North 18.4 mph 24.2 mph N/A   Overcast
4:32 AM 32.0 °F 21.6 °F 30.2 °F 93% 30.09 in 10.0 mi North 15.0 mph - N/A   Overcast
4:53 AM 32.0 °F 22.1 °F 32.0 °F 100% 30.09 in 5.0 mi North 13.8 mph 20.7 mph N/A   Overcast
5:12 AM 32.0 °F 20.8 °F 32.0 °F 100% 30.09 in 3.0 mi North 17.3 mph 21.9 mph N/A   Overcast
5:32 AM 32.0 °F 20.5 °F 32.0 °F 100% 30.09 in 4.0 mi North 18.4 mph - N/A   Overcast
5:53 AM 32.0 °F 21.6 °F 32.0 °F 100% 30.09 in 3.0 mi North 15.0 mph 23.0 mph N/A   Overcast
6:12 AM 32.0 °F 21.2 °F 32.0 °F 100% 30.09 in 4.0 mi North 16.1 mph 21.9 mph N/A   Overcast
6:32 AM 32.0 °F 20.8 °F 32.0 °F 100% 30.09 in 4.0 mi North 17.3 mph 21.9 mph N/A   Overcast
6:53 AM 32.0 °F 20.5 °F 32.0 °F 100% 30.09 in 5.0 mi North 18.4 mph 23.0 mph N/A   Overcast
7:12 AM 32.0 °F 20.1 °F 32.0 °F 100% 30.09 in 5.0 mi North 19.6 mph 25.3 mph N/A   Overcast
7:32 AM 33.8 °F 22.8 °F 32.0 °F 93% 30.08 in 2.5 mi North 18.4 mph 25.3 mph N/A   Overcast
7:53 AM 33.8 °F 22.8 °F 32.0 °F 93% 30.09 in 4.0 mi North 18.4 mph 25.3 mph N/A   Overcast
8:12 AM 33.8 °F 23.2 °F 32.0 °F 93% 30.10 in 5.0 mi North 17.3 mph 24.2 mph N/A   Overcast
8:32 AM 33.8 °F 23.5 °F 32.0 °F 93% 30.10 in 7.0 mi North 16.1 mph 24.2 mph N/A   Overcast
8:53 AM 33.8 °F 23.2 °F 33.8 °F 100% 30.11 in 10.0 mi North 17.3 mph 20.7 mph N/A   Overcast
9:12 AM 33.8 °F 23.5 °F 33.8 °F 100% 30.10 in 7.0 mi North 16.1 mph 20.7 mph N/A   Overcast
9:32 AM 33.8 °F 22.5 °F 33.8 °F 100% 30.10 in 3.0 mi North 19.6 mph 24.2 mph N/A   Overcast
9:53 AM 33.8 °F 22.2 °F 33.8 °F 100% 30.10 in 3.0 mi North 20.7 mph 24.2 mph N/A   Overcast
10:12 AM 33.8 °F 22.5 °F 33.8 °F 100% 30.11 in 1.8 mi North 19.6 mph 24.2 mph N/A   Overcast
10:32 AM 33.8 °F 23.2 °F 33.8 °F 100% 30.11 in 1.8 mi North 17.3 mph 21.9 mph N/A   Light Drizzle
10:53 AM 35.6 °F 24.8 °F 33.8 °F 93% 30.11 in 1.5 mi North 19.6 mph - N/A   Light Drizzle
11:12 AM 35.6 °F 25.5 °F 35.6 °F 100% 30.12 in 2.5 mi North 17.3 mph - N/A   Overcast
11:32 AM 35.6 °F 25.2 °F 35.6 °F 100% 30.12 in 1.5 mi North 18.4 mph - N/A   Overcast
11:53 AM 35.6 °F 25.9 °F 35.6 °F 100% 30.12 in 1.5 mi North 16.1 mph 20.7 mph N/A   Overcast
12:12 PM 35.6 °F 27.1 °F 35.6 °F 100% 30.13 in 4.0 mi North 12.7 mph 20.7 mph N/A   Overcast
12:37 PM 35.6 °F 26.6 °F 35.6 °F 100% 30.13 in 1.5 mi North 13.8 mph - N/A Rain Rain
12:53 PM 37.4 °F 27.2 °F 35.6 °F 93% 30.12 in 1.8 mi North 19.6 mph 23.0 mph N/A Rain Light Rain
1:12 PM 37.4 °F 27.8 °F 35.6 °F 93% 30.13 in 1.5 mi North 17.3 mph - N/A   Heavy Drizzle
1:32 PM 37.4 °F 28.5 °F 37.4 °F 100% 30.13 in 2.0 mi North 15.0 mph - 0.02 in Rain Rain
1:53 PM 39.2 °F 30.8 °F 37.4 °F 93% 30.13 in 3.0 mi North 15.0 mph - 0.04 in Rain Light Rain
2:12 PM 39.2 °F 30.5 °F 37.4 °F 93% 30.13 in 4.0 mi North 16.1 mph - N/A   Light Drizzle
2:32 PM 39.2 °F 32.0 °F 37.4 °F 93% 30.13 in 5.0 mi North 11.5 mph - N/A   Overcast
2:53 PM 39.2 °F 30.2 °F 37.4 °F 93% 30.12 in 7.0 mi North 17.3 mph - N/A   Overcast
3:13 PM 39.2 °F 30.8 °F 37.4 °F 93% 30.13 in 5.0 mi North 15.0 mph - N/A   Overcast
3:32 PM 39.2 °F 31.6 °F 39.2 °F 100% 30.13 in 4.0 mi NNE 12.7 mph - N/A   Overcast
3:53 PM 39.2 °F 31.6 °F 39.2 °F 100% 30.12 in 4.0 mi North 12.7 mph - N/A   Overcast
4:13 PM 39.2 °F 30.8 °F 39.2 °F 100% 30.13 in 7.0 mi NNW 15.0 mph - N/A   Overcast
4:32 PM 39.2 °F 30.8 °F 39.2 °F 100% 30.14 in 7.0 mi North 15.0 mph - N/A   Overcast
4:53 PM 39.2 °F 31.6 °F 39.2 °F 100% 30.14 in 7.0 mi North 12.7 mph - N/A   Overcast
5:13 PM 39.2 °F 32.0 °F 39.2 °F 100% 30.14 in 10.0 mi North 11.5 mph - N/A   Overcast
5:32 PM 39.2 °F 31.6 °F 39.2 °F 100% 30.13 in 7.0 mi North 12.7 mph - N/A   Overcast
5:53 PM 39.2 °F 32.0 °F 39.2 °F 100% 30.13 in 7.0 mi North 11.5 mph - N/A   Overcast
6:13 PM 39.2 °F 30.5 °F 39.2 °F 100% 30.13 in 10.0 mi North 16.1 mph 19.6 mph N/A   Overcast
6:32 PM 39.2 °F 31.2 °F 39.2 °F 100% 30.13 in 10.0 mi North 13.8 mph - N/A   Overcast
6:53 PM 39.2 °F 30.5 °F 39.2 °F 100% 30.13 in 10.0 mi North 16.1 mph 19.6 mph N/A   Overcast
7:13 PM 39.2 °F 30.8 °F 39.2 °F 100% 30.14 in 10.0 mi North 15.0 mph - N/A   Overcast
7:32 PM 39.2 °F 31.2 °F 39.2 °F 100% 30.14 in 10.0 mi North 13.8 mph - N/A   Overcast
7:53 PM 39.2 °F 31.2 °F 39.2 °F 100% 30.15 in 10.0 mi North 13.8 mph - N/A   Overcast
8:12 PM 39.2 °F 31.2 °F 39.2 °F 100% 30.15 in 3.0 mi North 13.8 mph 17.3 mph N/A   Overcast
8:32 PM 39.2 °F 31.6 °F 39.2 °F 100% 30.15 in 1.8 mi North 12.7 mph - N/A   Overcast
8:52 PM 39.2 °F 32.0 °F 39.2 °F 100% 30.16 in 1.2 mi North 11.5 mph - N/A   Overcast
9:12 PM 39.2 °F 32.5 °F 39.2 °F 100% 30.17 in 1.0 mi North 10.4 mph - N/A   Overcast
9:33 PM 39.2 °F 32.0 °F 39.2 °F 100% 30.17 in 1.0 mi North 11.5 mph - N/A   Overcast
9:52 PM 39.2 °F 32.5 °F 39.2 °F 100% 30.17 in 1.2 mi North 10.4 mph - N/A   Overcast
10:12 PM 39.2 °F 32.5 °F 39.2 °F 100% 30.17 in 1.2 mi North 10.4 mph - N/A   Overcast
10:33 PM 39.2 °F 32.5 °F 39.2 °F 100% 30.17 in 0.8 mi North 10.4 mph - N/A   Overcast
10:52 PM 39.2 °F 33.0 °F 39.2 °F 100% 30.17 in 0.8 mi North 9.2 mph - N/A   Overcast
11:12 PM 39.2 °F 32.0 °F 39.2 °F 100% 30.17 in 0.5 mi NNW 11.5 mph - N/A Fog Fog
11:33 PM 39.2 °F 33.0 °F 39.2 °F 100% 30.17 in 0.5 mi North 9.2 mph - N/A Fog Fog
11:52 PM 39.2 °F 33.0 °F 39.2 °F 100% 30.17 in 0.5 mi North 9.2 mph - N/A   Overcast